EW8756 Weather Reports


Display with metric or nautical units.
time (UTC)temp
F
wind
direction
speed
MPH
gust
MPH
rain 1hr
in
rain 24hr
in
rain mn
in
humidity
%
barometer
mb
20260505061529 54 301 0.0 0.0 0.00 0.00 0.00 86 1012.2
20260505060033 54 260 1.0 7.0 0.00 0.00 0.00 85 1012.1
20260505054522 55 268 2.0 8.0 0.00 0.00 0.00 84 1011.8
20260505053025 55 254 3.0 9.0 0.00 0.00 0.00 83 1011.8
20260505051520 56 236 1.0 5.0 0.00 0.00 0.00 82 1011.7
20260505041517 59 240 3.0 11.0 0.00 0.00 0.00 76 1011.1
20260505040017 60 236 7.0 15.0 0.00 0.00 0.00 74 1011.0
20260505034516 61 262 3.0 11.0 0.00 0.00 0.00 71 1010.8
20260505033019 62 289 7.0 14.0 0.00 0.00 0.00 69 1010.5
20260505031517 64 276 4.0 12.0 0.00 0.00 0.00 66 1010.3
20260505030015 66 251 5.0 10.0 0.00 0.00 0.00 63 1010.1
20260505024514 68 273 3.0 11.0 0.00 0.00 0.00 61 1009.9
20260505023014 69 281 5.0 11.0 0.00 0.00 0.00 59 1009.7
20260505021514 69 259 4.0 11.0 0.00 0.00 0.00 57 1009.7
20260505020017 70 285 6.0 12.0 0.00 0.00 0.00 54 1009.6
20260505014520 72 270 5.0 15.0 0.00 0.00 0.00 53 1009.7
20260505013011 72 251 8.0 13.0 0.00 0.00 0.00 53 1009.6
20260505011511 73 312 7.0 16.0 0.00 0.00 0.00 52 1009.6
20260505010010 74 305 8.0 16.0 0.00 0.00 0.00 52 1009.6
20260505004514 75 280 7.0 14.0 0.00 0.00 0.00 51 1009.5
20260505003005 75 308 7.0 11.0 0.00 0.00 0.00 51 1009.5
20260505001505 76 289 3.0 11.0 0.00 0.00 0.00 52 1009.4
20260505000008 75 321 6.0 14.0 0.00 0.00 0.00 52 1009.4
20260504234504 75 262 8.0 13.0 0.00 0.00 0.00 51 1009.4
20260504233003 76 290 6.0 12.0 0.00 0.00 0.00 51 1009.5
20260504231502 76 280 5.0 13.0 0.00 0.00 0.00 51 1009.7
20260504230003 76 284 7.0 12.0 0.00 0.00 0.00 49 1009.8
20260504224502 76 207 7.0 12.0 0.00 0.00 0.00 49 1009.9
20260504223000 77 258 4.0 11.0 0.00 0.00 0.00 49 1009.9
20260504221603 76 266 5.0 12.0 0.00 0.00 0.00 50 1010.0
20260504220106 75 305 9.0 12.0 0.00 0.00 0.00 49 1010.1
20260504214606 76 308 7.0 12.0 0.00 0.00 0.00 48 1010.3
20260504213059 76 288 7.0 15.0 0.00 0.00 0.00 49 1010.3
20260504211557 75 12 3.0 12.0 0.00 0.00 0.00 49 1010.3
20260504210105 76 310 5.0 10.0 0.00 0.00 0.00 48 1010.3
20260504204611 76 306 3.0 10.0 0.00 0.00 0.00 47 1010.4
20260504203124 74 333 6.0 13.0 0.00 0.00 0.00 47 1010.6
20260504201553 75 334 4.0 13.0 0.00 0.00 0.00 50 1010.6
20260504200052 75 198 2.0 5.0 0.00 0.00 0.00 49 1010.7
20260504194550 74 266 5.0 11.0 0.00 0.00 0.00 50 1010.7
20260504193050 73 213 1.0 10.0 0.00 0.00 0.00 51 1010.8
20260504191545 72 253 8.0 10.0 0.00 0.00 0.00 52 1010.9
20260504190042 71 312 2.0 8.0 0.00 0.00 0.00 54 1011.0
20260504184541 71 318 5.0 10.0 0.00 0.00 0.00 53 1011.2
20260504183038 70 303 1.0 8.0 0.00 0.00 0.00 52 1011.2
20260504181534 70 200 4.0 9.0 0.00 0.00 0.00 52 1011.3
20260504180030 69 231 1.0 6.0 0.00 0.00 0.00 54 1011.2
20260504174527 68 254 1.0 5.0 0.00 0.00 0.00 56 1011.4
20260504173022 67 253 1.0 8.0 0.00 0.00 0.00 57 1011.3
20260504171519 66 206 2.0 8.0 0.00 0.00 0.00 59 1011.4
20260504160109 62 258 3.0 8.0 0.00 0.00 0.00 67 1011.0
20260504081549 58 138 2.0 3.0 0.00 0.00 0.00 75 1009.4